Change the Weather History Date:

Wednesday, November 7, 2012

  Actual Average Record
Temperature  
Mean Temperature 42 °F -  
Max Temperature 46 °F 56 °F 71 °F (1996)
Min Temperature 36 °F 38 °F 24 °F (1998)
Degree Days  
Heating Degree Days 24    
Moisture  
Dew Point 40 °F    
Average Humidity 90    
Maximum Humidity 100    
Minimum Humidity 73    
Precipitation  
Precipitation 0.02 in - - ()
Sea Level Pressure  
Sea Level Pressure 29.96 in    
Wind  
Wind Speed 2 mph (NW)    
Max Wind Speed 8 mph    
Max Gust Speed -    
Visibility 5 miles    
Events Rain    
Averages and records for this station are not official NWS values.
T = Trace of Precipitation, MM = Missing Value Source: NWS Daily Summary

Daily Weather History Graph

Daily Weather History Graph

Search for Another Location

Airport or City:

Trip Planner

Search our weather history database for the weather conditions in past years. The results will help you decide how hot, cold, wet, or windy it might be!

Date:

Astronomy

Nov. 07, 2012 Rise Set
Actual Time 7:16 AM EST 5:38 PM EST
Civil Twilight 6:48 AM EST 6:06 PM EST
Nautical Twilight 6:17 AM EST 6:37 PM EST
Astronomical Twilight 5:46 AM EST 7:08 PM EST
Moon 12:16 AM EST (11/7) 1:40 PM EST (11/7)
Length of Visible Light 11h 17m
Length of Day
10h 22m
Last Quarter, 43% of the Moon is Illuminated
Nov 7
Last Quarter
Nov 13
New
Nov 20
First Quarter
Nov 28
Full
Dec 6
Last Quarter

Hourly Weather History & Observations

Time (EST) Temp. Windchill Dew Point Humidity Pressure Visibility Wind Dir Wind Speed Gust Speed Precip Events Conditions
12:39 AM 42.8 °F - 41.0 °F 93% 29.89 in 5.0 mi South 2.3 mph - N/A Rain Light Rain
12:55 AM 41.9 °F - 40.6 °F 95% 29.91 in 4.0 mi Calm Calm - 0.00 in Rain Light Rain
1:20 AM 41.0 °F - 41.0 °F 100% 29.88 in 4.0 mi SSW 2.3 mph - N/A   Overcast
1:35 AM 41.0 °F - 41.0 °F 100% 29.88 in 4.0 mi SSW 2.3 mph - N/A   Overcast
1:55 AM 41.7 °F - 40.6 °F 96% 29.90 in 3.0 mi Calm Calm - 0.00 in   Overcast
2:22 AM 42.8 °F - 41.0 °F 93% 29.88 in 3.0 mi SW 1.2 mph - N/A   Light Drizzle
2:55 AM 42.1 °F - 41.0 °F 96% 29.89 in 3.0 mi Calm Calm - 0.00 in   Overcast
3:55 AM 42.1 °F - 41.0 °F 96% 29.89 in 3.0 mi Calm Calm - N/A   Overcast
4:31 AM 42.8 °F - 41.0 °F 93% 29.87 in 2.5 mi Calm Calm - N/A   Overcast
4:48 AM 42.8 °F - 41.0 °F 93% 29.87 in 3.0 mi WSW 2.3 mph - N/A   Light Drizzle
4:55 AM 42.3 °F - 41.2 °F 96% 29.89 in 3.0 mi Calm Calm - 0.00 in   Light Drizzle
5:00 AM 42.8 °F - 41.0 °F 93% 29.87 in 3.0 mi Calm Calm - N/A   Light Drizzle
5:31 AM 42.8 °F - 41.0 °F 93% 29.87 in 2.0 mi Calm Calm - N/A   Overcast
5:55 AM 42.3 °F - 41.2 °F 96% 29.89 in 2.0 mi Calm Calm - 0.01 in Rain Light Rain
6:55 AM 42.1 °F - 41.4 °F 97% 29.90 in 2.5 mi Calm Calm - 0.00 in Rain Light Rain
7:31 AM 42.8 °F - 41.0 °F 93% 29.89 in 2.0 mi Calm Calm - N/A   Light Drizzle
7:55 AM 42.4 °F - 41.7 °F 97% 29.92 in 1.5 mi Calm Calm - 0.01 in   Light Drizzle
8:55 AM 42.6 °F - 41.5 °F 96% 29.94 in 2.5 mi Calm Calm - 0.00 in   Overcast
9:55 AM 42.8 °F 39.3 °F 41.2 °F 94% 29.96 in 4.0 mi NNE 5.8 mph - 0.00 in   Overcast
10:02 AM 42.8 °F 38.6 °F 41.0 °F 93% 30.03 in 4.0 mi NNE 6.9 mph - N/A   Overcast
10:55 AM 43.3 °F 39.2 °F 40.6 °F 90% 29.98 in 3.0 mi NNE 6.9 mph - N/A   Overcast
11:55 AM 43.7 °F 40.3 °F 40.6 °F 89% 29.99 in 4.0 mi North 5.8 mph - N/A   Overcast
12:55 PM 44.4 °F 40.0 °F 39.9 °F 84% 29.98 in 5.0 mi North 8.1 mph - N/A   Overcast
1:02 PM 44.6 °F 41.4 °F 41.0 °F 87% 29.96 in 5.0 mi North 5.8 mph - N/A   Overcast
1:55 PM 45.7 °F 42.0 °F 39.2 °F 78% 29.98 in 5.0 mi North 6.9 mph - N/A   Overcast
2:55 PM 46.6 °F - 39.2 °F 75% 29.99 in 6.0 mi NNW 5.8 mph - N/A   Overcast
3:55 PM 46.4 °F 44.3 °F 38.7 °F 74% 30.01 in 10.0 mi North 4.6 mph - N/A   Overcast
4:55 PM 46.2 °F 45.0 °F 38.1 °F 73% 30.03 in 10.0 mi NW 3.5 mph - N/A   Overcast
5:55 PM 45.5 °F 42.5 °F 38.5 °F 76% 30.06 in 10.0 mi NW 5.8 mph - N/A   Overcast
6:55 PM 45.3 °F 41.6 °F 38.8 °F 78% 30.08 in 10.0 mi NW 6.9 mph - N/A   Overcast
7:55 PM 43.9 °F 41.3 °F 38.1 °F 80% 30.10 in 10.0 mi WNW 4.6 mph - N/A   Overcast
8:55 PM 41.7 °F 38.0 °F 36.9 °F 83% 30.12 in 10.0 mi NW 5.8 mph - N/A   Partly Cloudy
9:55 PM 40.6 °F 36.7 °F 36.5 °F 85% 30.13 in 10.0 mi WNW 5.8 mph - N/A   Clear
10:55 PM 37.0 °F 34.5 °F 34.7 °F 91% 30.14 in 10.0 mi West 3.5 mph - N/A   Clear
11:55 PM 36.5 °F - 34.9 °F 94% 30.14 in 7.0 mi Calm Calm - N/A   Clear